[[{"header":{"parameterUnit":"m.s-1","parameterCategory":1,"la1":30.2991,"la2":30.254,"lo1":-89.0895,"lo2":-89.0444,"dy":0.0017,"dx":0.0017,"nx":28,"ny":28,"refTime":"2025-08-03T09:00:00:Z","depth":0,"parameterNumber":2,"parameterNumberName":"U-component_of_WINDS"},"data":[0,0,0,0,0,0,0,0,0,0,0,0,0,0,0,0,0,0,0,0,0,0,0,0,0,0,0,0,0,0,0,0,0,0,0,0,0,0,0,0,0,0,0,0,0,0,0,0,0,0,0,0,0,0,0,0,0,0,-1.3768,-1.3768,0,-1.3749,-1.3749,-1.3748,-1.3711,-1.371,-1.3709,-1.3708,-1.3689,-1.3689,-1.369,0,0,0,0,0,0,0,0,0,0,0,0,0,-1.377,-1.3771,-1.3768,-1.3767,-1.3767,-1.3749,-1.3749,-1.3748,-1.3711,-1.371,-1.3709,-1.3708,-1.3689,-1.3689,-1.369,0,0,0,0,0,0,0,0,0,0,0,0,0,-1.3762,-1.3771,-1.3768,-1.3746,-1.3744,-1.3749,-1.3749,-1.3748,-1.3711,-1.371,-1.3709,-1.3708,-1.3689,-1.3689,-1.369,-1.3714,0,0,-1.3691,-1.3691,0,0,0,0,0,0,0,0,-1.3763,-1.3762,-1.375,-1.3748,-1.3745,-1.3731,-1.3743,-1.3737,-1.3711,-1.3724,-1.3708,-1.3707,-1.3704,-1.3703,-1.3702,-1.3713,-1.3712,-1.3691,-1.3691,-1.3691,-1.3691,0,0,0,0,0,0,0,-1.3763,-1.3763,-1.376,-1.3749,-1.3747,-1.3737,-1.3735,-1.3741,-1.372,-1.3722,-1.372,-1.3718,-1.3703,-1.3702,-1.3701,-1.3712,-1.3691,-1.3691,-1.3691,-1.3691,-1.3741,-1.3742,0,0,0,0,0,0,-1.3767,-1.3763,-1.3761,-1.376,-1.3751,-1.3738,-1.3735,-1.3737,-1.372,-1.3717,-1.3719,-1.3716,-1.3702,-1.3701,-1.37,-1.3727,-1.3691,-1.3691,-1.3691,-1.3739,-1.3741,-1.3742,0,0,0,0,0,0,-1.3767,-1.3767,-1.3762,-1.3761,-1.3759,-1.3739,-1.3741,-1.3737,-1.3736,-1.3718,-1.3714,-1.3722,-1.3701,-1.37,-1.3711,-1.3725,-1.3691,-1.3692,-1.3738,-1.374,-1.3741,-1.378,0,0,0,0,0,0,-1.3768,-1.3768,-1.3777,-1.3761,-1.376,-1.3772,-1.3742,-1.3737,-1.3737,-1.3733,-1.3719,-1.3716,-1.37,-1.371,-1.3711,-1.3725,-1.3692,-1.3737,-1.3739,-1.3741,-1.3777,-1.3783,-1.3787,0,0,0,0,0,-1.3768,-1.3789,-1.3777,-1.3777,-1.3771,-1.3773,-1.3772,-1.3754,-1.3738,-1.3747,-1.3735,-1.3716,-1.3724,-1.3712,-1.3712,-1.3727,-1.3736,-1.3738,-1.3741,-1.3775,-1.3782,-1.3787,0,0,0,0,0,0,-1.3807,-1.3786,-1.3774,-1.379,-1.3784,-1.3767,-1.3778,-1.3762,-1.3759,-1.3756,-1.3733,-1.373,-1.3743,-1.3736,-1.3723,-1.3749,-1.3727,-1.3729,-1.3753,-1.3759,-1.3764,-1.3765,-1.3692,0,0,0,0,0,-1.3818,-1.3821,-1.3803,-1.382,-1.3817,-1.3798,-1.3799,-1.3784,-1.3777,-1.3774,-1.3763,-1.3756,-1.3756,-1.3757,-1.3757,-1.3776,-1.3772,-1.3786,-1.3791,-1.3796,-1.3798,-1.3806,-1.3812,-1.375,-1.375,-1.375,0,0,-1.3839,-1.3829,-1.3833,-1.3827,-1.3821,-1.3825,-1.3796,-1.3802,-1.3805,-1.3775,-1.3784,-1.3775,-1.3766,-1.378,-1.3786,-1.3775,-1.3814,-1.3799,-1.3803,-1.3803,-1.3809,-1.3815,-1.382,-1.3752,-1.3752,-1.3752,0,0,-1.3881,-1.3874,-1.3886,-1.388,-1.387,-1.3857,-1.386,-1.3845,-1.3838,-1.3847,-1.3824,-1.3827,-1.3829,-1.3823,-1.382,-1.3858,-1.3841,-1.3859,-1.3885,-1.3893,-1.3898,-1.3902,-1.3915,-1.3919,-1.3861,-1.3862,-1.3862,0,-1.391,-1.3915,-1.3894,-1.3901,-1.3899,-1.3872,-1.3884,-1.3879,-1.3869,-1.3868,-1.3856,-1.3857,-1.3849,-1.3861,-1.387,-1.3869,-1.3871,-1.386,-1.3899,-1.3903,-1.3907,-1.3918,-1.3923,-1.3864,-1.3863,-1.3863,-1.3863,0,-1.395,-1.3954,-1.3965,-1.3956,-1.3955,-1.3964,-1.3945,-1.3946,-1.3932,-1.3921,-1.3929,-1.3918,-1.3915,-1.3917,-1.3903,-1.3926,-1.3919,-1.3903,-1.3881,-1.3915,-1.3925,-1.393,-1.3867,-1.3866,-1.3865,-1.3865,0,0,-1.4015,-1.3994,-1.3999,-1.3994,-1.398,-1.3983,-1.3991,-1.3987,-1.3988,-1.3982,-1.3988,-1.3989,-1.3974,-1.3971,-1.3957,-1.3964,-1.3993,-1.3947,-1.3946,-1.3955,-1.4016,-1.4027,-1.4033,-1.3982,-1.3982,-1.3983,-1.4016,0,-1.4053,-1.4065,-1.4047,-1.4063,-1.4065,-1.4039,-1.4046,-1.4038,-1.4027,-1.4028,-1.4016,-1.4017,-1.3997,-1.3995,-1.4001,-1.3988,-1.4005,-1.3986,-1.3985,-1.3986,-1.3987,-1.4038,-1.4051,-1.4083,-1.402,-1.4021,-1.4022,0,-1.4099,-1.4095,-1.4111,-1.4095,-1.4096,-1.4102,-1.4096,-1.4098,-1.4088,-1.4079,-1.4075,-1.4058,-1.4064,-1.4043,-1.405,-1.4037,-1.4036,-1.4029,-1.403,-1.4028,-1.4005,-1.4037,-1.4093,-1.4097,-1.4028,-1.4028,-1.4027,0,-1.4143,-1.4142,-1.4151,-1.4148,-1.413,-1.4135,-1.4128,-1.4117,-1.4116,-1.4111,-1.4109,-1.4106,-1.4103,-1.41,-1.4082,-1.4068,-1.4091,-1.4068,-1.4083,-1.4083,-1.4088,-1.4088,-1.4143,-1.4089,-1.4089,-1.4089,-1.4089,0,-1.4187,-1.4197,-1.4171,-1.4176,-1.4187,-1.4166,-1.4177,-1.4167,-1.4157,-1.416,-1.4138,-1.4141,-1.4117,-1.4117,-1.4103,-1.411,-1.411,-1.4102,-1.4098,-1.4104,-1.4104,-1.4102,-1.4099,-1.409,-1.409,-1.409,-1.409,0,-1.4238,-1.4221,-1.4229,-1.4211,-1.4207,-1.4216,-1.4201,-1.4205,-1.4192,-1.4196,-1.4195,-1.4176,-1.4175,-1.4156,-1.4151,-1.4142,-1.4154,-1.4146,-1.4157,-1.4154,-1.4169,-1.4168,-1.4224,-1.4229,-1.4174,-1.4174,-1.4175,0,-1.4266,-1.4274,-1.4257,-1.4257,-1.4251,-1.4252,-1.425,-1.4229,-1.4228,-1.4216,-1.4222,-1.4219,-1.4215,-1.4214,-1.4199,-1.4195,-1.4186,-1.4206,-1.4186,-1.419,-1.4185,-1.4184,-1.4184,-1.4211,-1.4211,-1.4212,-1.4212,0,-1.4318,-1.4309,-1.4307,-1.4302,-1.43,-1.4295,-1.4289,-1.429,-1.4267,-1.4267,-1.4265,-1.4262,-1.4257,-1.4254,-1.4247,-1.4239,-1.4221,-1.4219,-1.4222,-1.4227,-1.4232,-1.4228,-1.4168,-1.4218,-1.4217,-1.4217,-1.4216,-1.4216,-1.4357,-1.4362,-1.4351,-1.4349,-1.4342,-1.4336,-1.4339,-1.4327,-1.4325,-1.4319,-1.4307,-1.4307,-1.4296,-1.4284,-1.4278,-1.4277,-1.4267,-1.4271,-1.4272,-1.4273,-1.4276,-1.4233,-1.4276,-1.4276,-1.4276,-1.4275,-1.4275,0,-1.4406,-1.4398,-1.4396,-1.4388,-1.4386,-1.437,-1.4362,-1.4362,-1.4362,-1.4354,-1.435,-1.4348,-1.4345,-1.4329,-1.4324,-1.4326,-1.4318,-1.4325,-1.4324,-1.4323,-1.4286,-1.4283,-1.4332,-1.4332,-1.4332,-1.4332,-1.4332,-1.4332,-1.4432,-1.4438,-1.4428,-1.4431,-1.4422,-1.4422,-1.4418,-1.4413,-1.4405,-1.4404,-1.4401,-1.4391,-1.4379,-1.4372,-1.4368,-1.4364,-1.4362,-1.4372,-1.4365,-1.4331,-1.4325,-1.432,-1.4317,-1.4372,-1.4373,-1.4401,-1.4402,-1.4402]},{"header":{"parameterUnit":"m.s-1","parameterCategory":1,"la1":30.2991,"la2":30.254,"lo1":-89.0895,"lo2":-89.0444,"dy":0.0017,"dx":0.0017,"nx":28,"ny":28,"refTime":"2025-08-03T09:00:00:Z","depth":0,"parameterNumber":3,"parameterNumberName":"V-component_of_WINDS"},"data":[0,0,0,0,0,0,0,0,0,0,0,0,0,0,0,0,0,0,0,0,0,0,0,0,0,0,0,0,0,0,0,0,0,0,0,0,0,0,0,0,0,0,0,0,0,0,0,0,0,0,0,0,0,0,0,0,0,0,-1.4349,-1.4349,0,-1.4323,-1.4323,-1.4323,-1.4309,-1.4309,-1.4309,-1.4309,-1.4281,-1.428,-1.4279,0,0,0,0,0,0,0,0,0,0,0,0,0,-1.4383,-1.4383,-1.4349,-1.4348,-1.4348,-1.4323,-1.4323,-1.4323,-1.4309,-1.4309,-1.4309,-1.4309,-1.4281,-1.428,-1.4279,0,0,0,0,0,0,0,0,0,0,0,0,0,-1.4364,-1.4382,-1.4349,-1.4338,-1.4337,-1.4324,-1.4323,-1.4323,-1.4309,-1.4309,-1.4309,-1.4309,-1.4281,-1.428,-1.4279,-1.4273,0,0,-1.4276,-1.4275,0,0,0,0,0,0,0,0,-1.4365,-1.4363,-1.434,-1.4339,-1.4338,-1.4319,-1.4325,-1.4306,-1.4309,-1.4319,-1.4309,-1.4309,-1.4293,-1.4291,-1.4287,-1.4272,-1.4271,-1.4276,-1.4275,-1.4274,-1.4274,0,0,0,0,0,0,0,-1.4366,-1.4364,-1.4339,-1.434,-1.4338,-1.4334,-1.4331,-1.4321,-1.4307,-1.4319,-1.4317,-1.4315,-1.4293,-1.4288,-1.4286,-1.427,-1.4276,-1.4275,-1.4274,-1.4274,-1.425,-1.425,0,0,0,0,0,0,-1.437,-1.4365,-1.4339,-1.4338,-1.4352,-1.4334,-1.433,-1.4325,-1.4307,-1.4304,-1.4315,-1.4314,-1.4289,-1.4287,-1.4285,-1.4277,-1.4274,-1.4273,-1.4273,-1.425,-1.425,-1.425,0,0,0,0,0,0,-1.4371,-1.4368,-1.4341,-1.4351,-1.4347,-1.4333,-1.4327,-1.4325,-1.432,-1.4304,-1.4301,-1.4313,-1.4289,-1.4286,-1.4276,-1.4276,-1.4273,-1.4272,-1.425,-1.425,-1.425,-1.4261,0,0,0,0,0,0,-1.4372,-1.4368,-1.4366,-1.4351,-1.4347,-1.4333,-1.4327,-1.4324,-1.4318,-1.4317,-1.4301,-1.4299,-1.4289,-1.4278,-1.4275,-1.4274,-1.4271,-1.425,-1.425,-1.425,-1.4261,-1.4262,-1.4262,0,0,0,0,0,-1.4373,-1.437,-1.4366,-1.4363,-1.4344,-1.4333,-1.4331,-1.432,-1.4318,-1.4316,-1.4306,-1.4299,-1.4276,-1.4277,-1.4274,-1.4273,-1.425,-1.425,-1.425,-1.4261,-1.4262,-1.4262,0,0,0,0,0,0,-1.4384,-1.4368,-1.4363,-1.4356,-1.4346,-1.4331,-1.4328,-1.4322,-1.4312,-1.4311,-1.4298,-1.4295,-1.4286,-1.4278,-1.428,-1.4266,-1.4262,-1.4262,-1.4272,-1.4272,-1.4273,-1.4275,-1.427,0,0,0,0,0,-1.4386,-1.4379,-1.4365,-1.4359,-1.4355,-1.4342,-1.4337,-1.433,-1.4319,-1.4315,-1.4304,-1.4293,-1.4284,-1.4278,-1.4268,-1.426,-1.4256,-1.4257,-1.4258,-1.4259,-1.4258,-1.4253,-1.4253,-1.425,-1.425,-1.425,0,0,-1.4389,-1.438,-1.4376,-1.4361,-1.4353,-1.4346,-1.4339,-1.4331,-1.4325,-1.4313,-1.4304,-1.4295,-1.4282,-1.4274,-1.4269,-1.4267,-1.4258,-1.4259,-1.4259,-1.4258,-1.4253,-1.4254,-1.4254,-1.425,-1.425,-1.425,0,0,-1.4392,-1.4384,-1.4378,-1.437,-1.4358,-1.435,-1.4349,-1.4334,-1.4329,-1.4319,-1.431,-1.4302,-1.4286,-1.4277,-1.4271,-1.427,-1.4263,-1.4267,-1.4271,-1.4266,-1.4266,-1.4267,-1.4266,-1.4266,-1.4267,-1.4267,-1.4267,0,-1.4397,-1.4386,-1.4376,-1.4369,-1.4363,-1.4353,-1.4347,-1.4339,-1.4324,-1.432,-1.4318,-1.4297,-1.4288,-1.4277,-1.4277,-1.4271,-1.4269,-1.4269,-1.4267,-1.4267,-1.4267,-1.4267,-1.4267,-1.4267,-1.4267,-1.4267,-1.4267,0,-1.4393,-1.4386,-1.4383,-1.437,-1.4363,-1.4357,-1.4345,-1.4339,-1.4333,-1.4325,-1.4315,-1.4303,-1.4291,-1.4288,-1.4281,-1.4275,-1.4274,-1.427,-1.4266,-1.4268,-1.4268,-1.4267,-1.4268,-1.4268,-1.4268,-1.4268,0,0,-1.4402,-1.4384,-1.4383,-1.4376,-1.4362,-1.4356,-1.4349,-1.4338,-1.4333,-1.4323,-1.4317,-1.4303,-1.4299,-1.4292,-1.4284,-1.428,-1.428,-1.4276,-1.4275,-1.4277,-1.4273,-1.4276,-1.4276,-1.4275,-1.4275,-1.4275,-1.4274,0,-1.4402,-1.439,-1.4381,-1.4371,-1.4364,-1.4354,-1.4348,-1.4339,-1.4331,-1.4323,-1.4314,-1.4305,-1.43,-1.4295,-1.4291,-1.4281,-1.4279,-1.4281,-1.4268,-1.4268,-1.4272,-1.4276,-1.4279,-1.4279,-1.4273,-1.4273,-1.4273,0,-1.4401,-1.4392,-1.4382,-1.4369,-1.4366,-1.4361,-1.435,-1.4342,-1.4331,-1.4326,-1.4317,-1.431,-1.4301,-1.4298,-1.4286,-1.4287,-1.4282,-1.4276,-1.4276,-1.4274,-1.4271,-1.4274,-1.4278,-1.4278,-1.4273,-1.4273,-1.4273,0,-1.4408,-1.4393,-1.4386,-1.4381,-1.4366,-1.4362,-1.4355,-1.4344,-1.4338,-1.4328,-1.4324,-1.4313,-1.4307,-1.4298,-1.4287,-1.4286,-1.4276,-1.4272,-1.4271,-1.4271,-1.4269,-1.4269,-1.4272,-1.4266,-1.4266,-1.4266,-1.4266,0,-1.4409,-1.4403,-1.4389,-1.4384,-1.4378,-1.4367,-1.4361,-1.4353,-1.4343,-1.4336,-1.4327,-1.432,-1.4307,-1.4298,-1.429,-1.4281,-1.4278,-1.4273,-1.4271,-1.4274,-1.4274,-1.427,-1.4269,-1.4266,-1.4266,-1.4266,-1.4266,0,-1.4416,-1.4406,-1.4397,-1.4383,-1.438,-1.4376,-1.4363,-1.4358,-1.435,-1.4342,-1.4339,-1.4326,-1.4315,-1.4304,-1.429,-1.4284,-1.4276,-1.4272,-1.428,-1.4278,-1.4278,-1.4278,-1.4278,-1.4277,-1.4271,-1.4271,-1.4271,0,-1.4417,-1.4413,-1.4399,-1.4394,-1.4388,-1.438,-1.4374,-1.4363,-1.4357,-1.4344,-1.434,-1.433,-1.4321,-1.4305,-1.4293,-1.4282,-1.4279,-1.4279,-1.4277,-1.428,-1.4278,-1.4279,-1.4278,-1.428,-1.428,-1.428,-1.428,0,-1.442,-1.4416,-1.4408,-1.4398,-1.4392,-1.4383,-1.4374,-1.4371,-1.4358,-1.4352,-1.4342,-1.4335,-1.4321,-1.431,-1.4298,-1.429,-1.4283,-1.4281,-1.428,-1.4283,-1.4288,-1.4285,-1.4281,-1.4281,-1.4281,-1.4281,-1.4281,-1.4281,-1.4424,-1.442,-1.441,-1.4401,-1.4394,-1.4386,-1.438,-1.4372,-1.4363,-1.4352,-1.4345,-1.4336,-1.4324,-1.4307,-1.43,-1.4291,-1.4289,-1.4287,-1.4287,-1.4287,-1.4288,-1.4289,-1.4289,-1.4289,-1.4289,-1.4289,-1.4289,0,-1.4427,-1.442,-1.4412,-1.4401,-1.4394,-1.4389,-1.4379,-1.4373,-1.4365,-1.4355,-1.4347,-1.4335,-1.4325,-1.4313,-1.4302,-1.4297,-1.4294,-1.4295,-1.4295,-1.4293,-1.4291,-1.4292,-1.4298,-1.4298,-1.4298,-1.4298,-1.4298,-1.4298,-1.4428,-1.442,-1.4414,-1.4403,-1.4396,-1.4387,-1.4381,-1.4374,-1.4366,-1.4354,-1.4346,-1.4338,-1.4328,-1.4316,-1.4306,-1.4302,-1.4299,-1.43,-1.4296,-1.4294,-1.4293,-1.4292,-1.4294,-1.43,-1.43,-1.4299,-1.4299,-1.4299]}]]